This demonstration page uses our WeatherBlox Daily Observations layout. Learn more.

Left ArrowRight Arrow

Hourly Observations for February 26, 2020

Temp ( °F °C ) Dew Point ( °F °C ) Humidity (%) Winds ( mph kmh ) Pressure ( in mb ) Visibility ( mi km ) Precip ( " mm )
12:45 am 00:45 Cloudy with Fog 55 12.8 53 11.7 93 93 N 6 9 29.86 1011 1 1 0.00 0.00
12:59 am 00:59 Cloudy with Fog 54 12.2 53 11.7 97 97 NNE 5 7 29.85 1011 1 1 0.00 0.00
1:59 am 01:59 Mostly Cloudy with Fog 54 12.2 53 11.7 97 97 Calm 29.85 1011 1 1 0.00 0.00
2:59 am 02:59 Cloudy with Fog 54 12.2 52 11.1 93 93 ENE 5 7 29.85 1011 1 1 0.00 0.00
3:59 am 03:59 Cloudy with Fog 53 11.7 52 11.1 96 96 ENE 6 9 29.85 1011 1 1 0.00 0.00
4:25 am 04:25 Cloudy with Mist and Fog 53 11.7 52 11.1 96 96 E 7 11 29.86 1011 4 6 0.00 0.00
4:59 am 04:59 Cloudy with Mist and Fog 53 11.7 52 11.1 96 96 E 6 9 29.86 1011 5 8 0.00 0.00
5:51 am 05:51 Cloudy with Mist and Fog 53 11.7 52 11.1 96 96 E 5 7 29.87 1012 3 4 0.00 0.00
5:59 am 05:59 Cloudy with Mist and Fog 53 11.7 51 10.6 93 93 E 3 6 29.86 1011 3 4 0.00 0.00
6:49 am 06:49 Cloudy with Fog 52 11.1 51 10.6 97 97 E 5 7 29.88 1012 1 1 0.00 0.00
6:59 am 06:59 Cloudy with Fog 52 11.1 51 10.6 97 97 E 3 6 29.88 1012 1 1 0.00 0.00
7:42 am 07:42 Mostly Cloudy with Fog 53 11.7 52 11.1 96 96 E 6 9 29.90 1013 0 0 0.00 0.00
7:59 am 07:59 Mostly Cloudy with Fog 53 11.7 52 11.1 96 96 ESE 8 13 29.90 1013 0 0 0.00 0.00
8:59 am 08:59 Mostly Cloudy with Fog 53 11.7 52 11.1 96 96 E 8 13 29.91 1013 0 0 0.00 0.00
9:59 am 09:59 Mostly Cloudy with Fog 53 11.7 52 11.1 96 96 E 8 13 29.92 1013 0 0 0.00 0.00
10:59 am 10:59 Cloudy with Fog 53 11.7 52 11.1 96 96 E 7 11 29.90 1013 1 1 0.00 0.00
11:44 am 11:44 Cloudy with Mist and Fog 55 12.8 53 11.7 93 93 E 8 13 29.90 1013 1 2 0.00 0.00
11:59 am 11:59 Cloudy with Mist and Fog 55 12.8 54 12.2 96 96 ESE 10 17 29.88 1012 1 2 0.00 0.00
12:59 pm 12:59 Cloudy with Mist and Fog 57 13.9 55 12.8 93 93 ESE 10 17 29.85 1011 2 2 0.00 0.00
1:59 pm 13:59 Cloudy with Mist and Fog 58 14.4 55 12.8 90 90 ESE 8 13 29.82 1010 3 4 0.00 0.00
2:52 pm 14:52 Cloudy with Mist and Fog 57 13.9 55 12.8 93 93 ESE 9 15 29.80 1009 2 2 0.00 0.00
2:59 pm 14:59 Cloudy with Mist and Fog 57 13.9 55 12.8 93 93 ESE 9 15 29.80 1009 2 2 0.00 0.00
3:56 pm 15:56 Cloudy with Mist and Fog 57 14 55 13 94 94 SE 7 11 29.79 1009 3 5 0.00 0.00
3:59 pm 15:59 Cloudy with Mist and Fog 57 13.9 55 12.8 93 93 SE 9 15 29.79 1009 3 5 0.00 0.00
4:59 pm 16:59 Cloudy with Mist and Fog 57 13.9 54 12.2 90 90 ESE 8 13 29.75 1008 4 6 0.00 0.00
5:31 pm 17:31 Cloudy with Mist and Fog 57 13.9 54 12.2 90 90 SE 7 11 29.75 1007 5 8 0.00 0.00
5:59 pm 17:59 Cloudy with Mist and Fog 56 13.3 54 12.2 93 93 ESE 8 13 29.72 1007 5 8 0.00 0.00
6:40 pm 18:40 Cloudy with Mist and Fog 56 13.3 53 11.7 90 90 ESE 7 11 29.71 1006 6 10 0.00 0.00
6:59 pm 18:59 Cloudy with Mist and Fog 55 12.8 53 11.7 93 93 ESE 8 13 29.67 1005 5 8 0.00 0.00
7:03 pm 19:03 Cloudy with Mist and Fog 55 12.8 53 11.7 93 93 ESE 9 15 29.67 1005 2 3 0.00 0.00
7:59 pm 19:59 Cloudy with Mist and Fog 55 12.8 54 12.2 96 96 SSE 5 7 29.68 1005 2 3 0.00 0.00
8:59 pm 20:59 Cloudy with Mist and Fog 57 13.9 55 12.8 93 93 S 5 7 29.63 1004 6 10 0.00 0.00
9:31 pm 21:31 Cloudy with Mist and Fog 57 13.9 55 12.8 93 93 SSE 7 11 29.61 1003 6 10 0.00 0.00
9:47 pm 21:47 Cloudy with Mist and Fog 58 14.4 56 13.3 93 93 SSE 9 15 29.60 1002 6 10 0.00 0.00
9:59 pm 21:59 Cloudy 58 14.4 56 13.3 93 93 S 8 13 29.61 1003 8 13 0.00 0.00
10:59 pm 22:59 Cloudy 62 16.7 58 14.4 86 86 S 10 17 29.57 1001 10 16 0.00 0.00
11:50 pm 23:50 Cloudy 63 17.2 58 14.4 84 84 SSW 15 24 29.56 1001 10 16 0.00 0.00
11:59 pm 23:59 Cloudy with Light Rain 61 16.1 55 12.8 81 81 WSW 23 37 29.58 1002 5 8 0.03 0.76

Powered by AerisWeather